Date String (YYYY-MM-DD hh:mm:ss) UTC,Instrument flags,Ambient pressure (hPa),Sample flow (lpm),Bypass flow (lpm),Sample temperature (°C),Ambient temperature (°C),ASC tube jacket temperature (°C),LED temperature (°C),Box temperature (°C),Sample RH (%),Span deviation,Mass concentration (μg/m³),Mass concentration (μg/m³),Mass concentration (μg/m³)
DateTimeUTC,F1_M11,P_M11,Q1_M11,Q2_M11,T1_M11,T2_M11,T3_M11,T4_M11,T5_M11,U1_M11,ZSPAN_M11,X0_M11,X2_M11,X1_M11
2021-12-17 18:00:00,,0821.8,4.99,0.00,22.2,22.4,00.0,31.1,23.9,07.0,0000.0,0002.67,0000.40,0000.22
2021-12-17 18:01:00,,0821.8,5.00,0.00,22.2,22.1,00.0,31.1,23.8,06.9,0000.0,0002.60,0000.39,0000.22
2021-12-17 18:02:00,,0821.8,4.99,0.00,22.1,21.9,00.0,31.1,23.7,06.9,0000.0,0002.63,0000.39,0000.22
2021-12-17 18:03:00,,0821.8,5.01,0.00,22.1,21.7,00.0,31.1,23.6,06.9,0000.0,0002.63,0000.39,0000.22
2021-12-17 18:04:00,,0821.8,5.01,0.00,22.0,21.6,00.0,31.1,23.6,06.9,0000.0,0002.64,0000.40,0000.22
2021-12-17 18:05:00,,0821.8,5.01,0.00,22.0,21.5,00.0,31.1,23.5,07.0,0000.0,0002.05,0000.41,0000.23
2021-12-17 18:06:00,,0821.8,5.00,0.00,22.0,21.4,00.0,31.1,23.5,06.9,0000.0,0001.49,0000.39,0000.23
2021-12-17 18:07:00,,0821.8,4.99,0.00,21.9,21.3,00.0,31.1,23.4,07.0,0000.0,0001.43,0000.36,0000.22
2021-12-17 18:08:00,,0821.8,5.02,0.00,21.9,21.2,00.0,31.1,23.4,07.0,0000.0,0001.46,0000.36,0000.22
2021-12-17 18:09:00,,0821.8,4.99,0.00,21.9,21.2,00.0,31.1,23.4,06.9,0000.0,0001.46,0000.35,0000.22
2021-12-17 18:10:00,,0821.7,5.01,0.00,21.9,21.1,00.0,31.0,23.4,07.1,0000.0,0000.83,0000.33,0000.22
2021-12-17 18:11:00,,0821.6,5.00,0.00,21.9,21.1,00.0,31.0,23.3,07.0,0000.0,0000.62,0000.31,0000.22
2021-12-17 18:12:00,,0821.5,5.00,0.00,21.8,21.1,00.0,31.0,23.3,06.9,0000.0,0000.61,0000.30,0000.22
2021-12-17 18:13:00,,0821.3,5.00,0.00,21.8,21.0,00.0,31.0,23.3,06.9,0000.0,0000.58,0000.29,0000.22
2021-12-17 18:14:00,,0821.5,5.01,0.00,21.8,21.0,00.0,31.0,23.3,07.2,0000.0,0001.77,0000.38,0000.25
2021-12-17 18:15:00,,0821.6,4.99,0.00,21.8,21.0,00.0,30.9,23.3,07.4,0000.0,0004.36,0000.60,0000.35
2021-12-17 18:16:00,,0821.7,5.00,0.00,21.8,21.0,00.0,30.9,23.3,07.1,0000.0,0005.51,0000.73,0000.43
2021-12-17 18:17:00,,0821.8,5.00,0.00,21.8,21.0,00.0,30.9,23.3,07.1,0000.0,0006.41,0000.86,0000.50
2021-12-17 18:18:00,,0821.8,5.01,0.00,21.8,21.1,00.0,30.9,23.4,07.2,0000.0,0006.79,0001.01,0000.58
2021-12-17 18:19:00,,0821.8,4.99,0.00,21.8,21.1,00.0,30.9,23.5,07.3,0000.0,0007.66,0001.18,0000.66
2021-12-17 18:20:00,,0821.8,5.00,0.00,21.9,21.2,00.0,30.9,23.6,07.6,0000.0,0008.36,0001.34,0000.75
2021-12-17 18:21:00,,0821.8,4.99,0.00,21.9,21.3,00.0,30.9,23.6,07.8,0000.0,0008.69,0001.61,0000.89
2021-12-17 18:22:00,,0821.8,5.01,0.00,21.9,21.3,00.0,30.9,23.7,07.8,0000.0,0009.05,0001.91,0001.05
2021-12-17 18:23:00,,0822.0,4.99,0.00,22.0,21.3,00.0,30.9,23.7,07.9,0000.0,0009.46,0002.28,0001.23
2021-12-17 18:24:00,,0822.0,5.00,0.00,22.0,21.4,00.0,30.9,23.7,07.7,0000.0,0010.80,0002.67,0001.41
2021-12-17 18:25:00,,0821.9,5.00,0.00,22.0,21.4,00.0,30.9,23.8,07.7,0000.0,0011.03,0002.90,0001.53
2021-12-17 18:26:00,,0822.0,5.01,0.00,22.0,21.5,00.0,31.0,23.8,07.6,0000.0,0009.65,0002.91,0001.57
2021-12-17 18:27:00,,0822.0,4.99,0.00,22.1,21.5,00.0,31.0,23.8,07.7,0000.0,0009.52,0003.03,0001.63
2021-12-17 18:28:00,,0821.9,5.01,0.00,22.1,21.6,00.0,31.0,23.9,07.8,0000.0,0009.67,0003.19,0001.73
2021-12-17 18:29:00,,0821.9,4.99,0.00,22.1,21.6,00.0,31.0,23.9,07.8,0000.0,0009.78,0003.25,0001.81
2021-12-17 18:30:00,,0822.0,5.01,0.00,22.2,21.6,00.0,31.0,23.9,07.8,0000.0,0009.78,0003.32,0001.90
2021-12-17 18:31:00,,0822.0,5.00,0.00,22.2,21.6,00.0,31.0,23.9,07.7,0000.0,0009.51,0003.37,0001.97
2021-12-17 18:32:00,,0822.0,5.00,0.00,22.2,21.6,00.0,31.1,24.0,07.7,0000.0,0010.13,0003.39,0001.98
2021-12-17 18:33:00,,0821.9,5.00,0.00,22.2,21.6,00.0,31.1,24.0,07.7,0000.0,0010.39,0003.38,0001.98
2021-12-17 18:34:00,,0822.0,4.99,0.00,22.2,21.6,00.0,31.1,24.0,07.5,0000.0,0010.44,0003.33,0001.95
2021-12-17 18:35:00,,0822.0,5.00,0.00,22.3,21.6,00.0,31.1,24.1,07.5,0000.0,0009.83,0003.25,0001.90
2021-12-17 18:36:00,,0822.0,5.00,0.00,22.3,21.7,00.0,31.1,24.1,07.5,0000.0,0009.49,0003.20,0001.87
2021-12-17 18:37:00,,0822.0,4.99,0.00,22.3,21.7,00.0,31.2,24.1,07.4,0000.0,0009.50,0003.17,0001.86
2021-12-17 18:38:00,,0822.0,5.01,0.00,22.4,21.7,00.0,31.2,24.1,07.4,0000.0,0010.69,0003.14,0001.82
2021-12-17 18:39:00,,0822.1,4.99,0.00,22.4,21.6,00.0,31.2,24.1,07.4,0000.0,0010.49,0003.05,0001.77
2021-12-17 18:40:00,,0822.1,5.01,0.00,22.4,21.6,00.0,31.2,24.1,07.4,0000.0,0010.65,0003.04,0001.73
2021-12-17 18:41:00,,0822.2,5.01,0.00,22.4,21.6,00.0,31.2,24.2,07.6,0000.0,0010.71,0003.02,0001.70
2021-12-17 18:42:00,,0822.2,5.00,0.00,22.4,21.6,00.0,31.3,24.1,08.0,0000.0,0011.02,0003.15,0001.75
2021-12-17 18:43:00,,0822.2,5.00,0.00,22.5,21.7,00.0,31.3,24.2,07.9,0000.0,0010.77,0003.20,0001.80
2021-12-17 18:44:00,,0822.2,5.01,0.00,22.5,21.6,00.0,31.3,24.2,07.4,0000.0,0010.49,0003.19,0001.79
2021-12-17 18:45:00,,0822.2,5.00,0.00,22.5,21.7,00.0,31.3,24.2,06.8,0000.0,0010.20,0003.10,0001.71
2021-12-17 18:46:00,,0822.2,5.02,0.00,22.5,21.6,00.0,31.3,24.2,06.7,0000.0,0009.73,0002.92,0001.61
2021-12-17 18:47:00,,0822.1,4.99,0.00,22.5,21.6,00.0,31.4,24.2,06.6,0000.0,0010.30,0002.74,0001.51
2021-12-17 18:48:00,,0822.1,5.01,0.00,22.5,21.5,00.0,31.4,24.2,06.5,0000.0,0010.19,0002.58,0001.39
2021-12-17 18:49:00,,0822.0,5.00,0.00,22.5,21.5,00.0,31.4,24.1,06.5,0000.0,0008.77,0002.40,0001.28
2021-12-17 18:50:00,,0821.8,5.01,0.00,22.5,21.5,00.0,31.4,24.1,06.5,0000.0,0007.98,0002.19,0001.18
2021-12-17 18:51:00,,0821.8,5.00,0.00,22.5,21.5,00.0,31.4,24.1,06.4,0000.0,0008.32,0001.96,0001.06
2021-12-17 18:52:00,,0821.8,5.00,0.00,22.5,21.5,00.0,31.4,24.1,06.5,0000.0,0008.05,0001.73,0000.94
2021-12-17 18:53:00,,0821.7,5.00,0.00,22.4,21.4,00.0,31.4,24.0,06.4,0000.0,0007.03,0001.33,0000.76
2021-12-17 18:54:00,,0821.7,5.01,0.00,22.4,21.3,00.0,31.4,24.0,06.2,0000.0,0005.50,0000.94,0000.55
2021-12-17 18:55:00,,0821.6,5.01,0.00,22.4,21.3,00.0,31.4,24.0,06.1,0000.0,0004.67,0000.61,0000.39
2021-12-17 18:56:00,,0821.6,4.99,0.00,22.4,21.3,00.0,31.4,24.0,06.0,0000.0,0004.87,0000.50,0000.32
2021-12-17 18:57:00,,0821.5,5.01,0.00,22.4,21.3,00.0,31.4,23.9,06.0,0000.0,0006.17,0000.46,0000.28
2021-12-17 18:58:00,,0821.5,4.99,0.00,22.3,21.3,00.0,31.4,23.9,05.8,0000.0,0005.82,0000.46,0000.27
2021-12-17 18:59:00,,0821.6,5.01,0.00,22.3,21.4,00.0,31.4,24.0,05.7,0000.0,0006.18,0000.52,0000.27
